Location: St. Louis
(38.6270°N, 90.1994°W)
Time: 18:13:18
(UTC-06:00)

Courier 1B - Pass Details

Date: 01 December 2021
Orbit: 962 x 1209 km, 28.3° (Epoch: 26 January)

Event Time Altitude Azimuth Distance (km) Brightness Sun altitude
Rises 17:24:14 0° 233° (SW) 3,991 12.5 -8.7°
Reaches altitude 10° 17:27:30 10° 223° (SW) 2,993 11.2 -9.3°
Maximum altitude 17:33:34 29° 167° (SSE) 1,881 9.1 -10.4°
Drops below altitude 10° 17:39:21 10° 110° (ESE) 2,841 9.5 -11.5°
Enters shadow 17:40:08 - 107° (ESE) 3,064 9.6 -11.6°
